Weather History for Fort Benning, GA

Change the Weather History Date:

Tuesday, March 5, 2013

  Actual Average Record
Temperature  
Mean Temperature 58 °F -  
Max Temperature 73 °F 64 °F 82 °F (1997)
Min Temperature 39 °F 40 °F 19 °F (2002)
Degree Days  
Heating Degree Days 8    
Growing Degree Days 8 (Base 50)    
Moisture  
Dew Point 48 °F    
Average Humidity 72    
Maximum Humidity 94    
Minimum Humidity 50    
Precipitation  
Precipitation 0.26 in - - ()
Sea Level Pressure  
Sea Level Pressure 29.99 in    
Wind  
Wind Speed 8 mph (SSW)    
Max Wind Speed 25 mph    
Max Gust Speed 38 mph    
Visibility 9 miles    
Events Rain    
Averages and records for this station are not official NWS values.
T = Trace of Precipitation, MM = Missing Value Source: NWS Daily Summary

Daily Weather History Graph

Daily Weather History Graph

Search for Another Location

Airport:

Trip Planner

Search our weather history database for the weather conditions in past years. The results will help you decide how hot, cold, wet, or windy it might be!

Date:

Astronomy

Mar. 05, 2013 Rise Set
Actual Time 7:02 AM EST 6:40 PM EST
Civil Twilight 6:37 AM EST 7:05 PM EST
Nautical Twilight 6:09 AM EST 7:33 PM EST
Astronomical Twilight 5:41 AM EST 8:02 PM EST
Moon 1:58 AM EST (3/5) 12:33 PM EST (3/5)
Length of Visible Light 12h 27m
Length of Day
11h 38m
Last Quarter, 41% of the Moon is Illuminated
Mar 5
Last Quarter
Mar 11
New
Mar 19
First Quarter
Mar 27
Full
Apr 3
Last Quarter

Hourly Weather History & Observations

Time (EST) Temp. Windchill Dew Point Humidity Pressure Visibility Wind Dir Wind Speed Gust Speed Precip Events Conditions
12:58 AM 50.0 °F - 39.0 °F 66% 30.07 in 10.0 mi South 4.6 mph - N/A   Overcast
1:33 AM 50.0 °F - 39.2 °F 66% 30.07 in 10.0 mi SSE 4.6 mph - N/A   Overcast
1:58 AM 50.7 °F - 41.0 °F 69% 30.08 in 10.0 mi SSE 5.8 mph - N/A   Overcast
2:43 AM 50.0 °F - 42.8 °F 76% 30.07 in 10.0 mi SE 4.6 mph - N/A   Overcast
2:58 AM 50.7 °F - 42.1 °F 72% 30.09 in 10.0 mi SSE 2.3 mph - N/A   Overcast
3:23 AM 50.0 °F - 42.8 °F 76% 30.08 in 10.0 mi Calm Calm - N/A   Overcast
3:25 AM 50.0 °F - 42.8 °F 76% 30.08 in 10.0 mi Calm Calm - N/A   Light Drizzle
3:34 AM 50.0 °F - 42.8 °F 76% 30.08 in 10.0 mi Calm Calm - N/A   Overcast
3:39 AM 50.0 °F - 42.8 °F 76% 30.08 in 10.0 mi SSE 1.2 mph - N/A   Overcast
3:44 AM 50.0 °F - 42.8 °F 76% 30.07 in 10.0 mi SSE 2.3 mph - N/A   Overcast
3:49 AM 50.0 °F - 44.6 °F 82% 30.07 in 8.0 mi SSE 1.2 mph - N/A   Overcast
3:58 AM 50.0 °F - 44.6 °F 82% 30.08 in 4.0 mi Calm Calm - 0.00 in   Haze
4:03 AM 50.0 °F - 42.8 °F 76% 30.07 in 4.0 mi SSE 2.3 mph - N/A   Haze
4:13 AM 50.0 °F - 44.6 °F 82% 30.07 in 5.0 mi SSE 1.2 mph - N/A   Haze
4:28 AM 50.0 °F - 42.8 °F 76% 30.07 in 9.0 mi Calm Calm - N/A   Overcast
4:33 AM 50.0 °F - 42.8 °F 76% 30.07 in 9.0 mi East 1.2 mph - N/A   Overcast
4:43 AM 50.0 °F - 44.6 °F 82% 30.07 in 9.0 mi SE 5.8 mph - N/A   Overcast
4:58 AM 49.8 °F - 44.8 °F 83% 30.08 in 10.0 mi SE 5.8 mph - N/A   Overcast
5:38 AM 50.0 °F - 42.8 °F 76% 30.06 in 10.0 mi SSE 5.8 mph - N/A   Overcast
5:43 AM 50.0 °F - 42.8 °F 76% 30.06 in 10.0 mi SSE 5.8 mph - N/A   Overcast
5:58 AM 50.9 °F - 43.0 °F 74% 30.07 in 10.0 mi SSE 4.6 mph - N/A   Overcast
6:53 AM 51.8 °F - 42.8 °F 71% 30.07 in 10.0 mi South 4.6 mph - N/A   Overcast
6:58 AM 51.3 °F - 43.3 °F 74% 30.08 in 10.0 mi South 4.6 mph - N/A   Overcast
7:03 AM 51.8 °F - 42.8 °F 71% 30.07 in 10.0 mi South 5.8 mph - N/A   Overcast
7:13 AM 51.8 °F - 44.6 °F 76% 30.06 in 10.0 mi South 8.1 mph - N/A   Overcast
7:18 AM 51.8 °F - 44.6 °F 76% 30.07 in 10.0 mi South 6.9 mph - N/A   Overcast
7:23 AM 51.8 °F - 44.6 °F 76% 30.06 in 10.0 mi South 8.1 mph - N/A   Overcast
7:58 AM 52.0 °F - 44.8 °F 76% 30.07 in 10.0 mi South 8.1 mph - N/A   Mostly Cloudy
8:28 AM 53.6 °F - 46.4 °F 77% 30.06 in 10.0 mi South 8.1 mph - N/A   Mostly Cloudy
8:58 AM 55.0 °F - 47.3 °F 75% 30.06 in 10.0 mi South 10.4 mph - N/A   Overcast
9:23 AM 55.4 °F - 48.2 °F 77% 30.04 in 10.0 mi South 13.8 mph - N/A   Overcast
9:25 AM 57.2 °F - 48.2 °F 72% 30.04 in 7.0 mi South 12.7 mph - N/A   Overcast
9:28 AM 57.2 °F - 48.2 °F 72% 30.04 in 10.0 mi South 13.8 mph - N/A   Overcast
9:58 AM 57.4 °F - 49.8 °F 76% 30.05 in 10.0 mi South 10.4 mph - N/A   Overcast
10:28 AM 59.0 °F - 50.0 °F 72% 30.03 in 10.0 mi South 9.2 mph - N/A   Overcast
10:38 AM 59.0 °F - 50.0 °F 72% 30.03 in 10.0 mi South 11.5 mph - N/A   Overcast
10:46 AM 59.0 °F - 51.8 °F 77% 30.02 in 10.0 mi South 11.5 mph - N/A   Light Drizzle
10:55 AM 59.0 °F - 51.8 °F 77% 30.03 in 10.0 mi South 12.7 mph - N/A   Overcast
10:58 AM 58.5 °F - 51.3 °F 77% 30.04 in 10.0 mi South 10.4 mph - 0.00 in   Overcast
11:08 AM 59.0 °F - 51.8 °F 77% 30.02 in 10.0 mi South 10.4 mph - N/A   Overcast
11:13 AM 59.0 °F - 51.8 °F 77% 30.02 in 10.0 mi South 12.7 mph - N/A   Overcast
11:58 AM 63.0 °F - 54.0 °F 72% 30.00 in 10.0 mi South 12.7 mph - N/A   Overcast
12:23 PM 66.2 °F - 55.4 °F 68% 29.97 in 10.0 mi SSW 12.7 mph 20.7 mph N/A   Overcast
12:43 PM 66.2 °F - 55.4 °F 68% 29.95 in 10.0 mi SSW 12.7 mph 17.3 mph N/A   Overcast
12:48 PM 66.2 °F - 55.4 °F 68% 29.95 in 10.0 mi SSW 16.1 mph - N/A   Overcast
12:53 PM 66.2 °F - 55.4 °F 68% 29.94 in 10.0 mi SSW 10.4 mph - N/A   Overcast
12:58 PM 67.5 °F - 54.9 °F 64% 29.95 in 10.0 mi South 8.1 mph - N/A   Overcast
1:35 PM 69.8 °F - 55.4 °F 60% 29.90 in 10.0 mi SW 20.7 mph 31.1 mph N/A   Overcast
1:48 PM 69.8 °F - 57.2 °F 64% 29.87 in 10.0 mi South 12.7 mph 27.6 mph N/A   Mostly Cloudy
1:53 PM 71.6 °F - 57.2 °F 60% 29.87 in 10.0 mi South 13.8 mph 27.6 mph N/A   Mostly Cloudy
1:58 PM 72.1 °F - 56.1 °F 57% 29.88 in 10.0 mi SSW 16.1 mph 24.2 mph N/A   Mostly Cloudy
2:53 PM 73.4 °F - 53.6 °F 50% 29.84 in 10.0 mi SW 17.3 mph 28.8 mph N/A   Overcast
2:58 PM 72.7 °F - 53.2 °F 50% 29.85 in 10.0 mi SSW 15.0 mph 27.6 mph N/A   Overcast
3:03 PM 73.4 °F - 53.6 °F 50% 29.83 in 10.0 mi SSW 18.4 mph 28.8 mph N/A   Overcast
3:58 PM 72.9 °F - 53.4 °F 50% 29.81 in 10.0 mi SW 16.1 mph 27.6 mph N/A   Overcast
4:18 PM 73.4 °F - 53.6 °F 50% 29.77 in 10.0 mi SSW 16.1 mph 24.2 mph N/A   Mostly Cloudy
4:53 PM 73.4 °F - 53.6 °F 50% 29.77 in 10.0 mi SW 23.0 mph 38.0 mph N/A   Mostly Cloudy
4:58 PM 72.9 °F - 54.1 °F 52% 29.78 in 10.0 mi SW 23.0 mph 38.0 mph N/A   Overcast
5:16 PM 73.4 °F - 53.6 °F 50% 29.78 in 10.0 mi WSW 25.3 mph 33.4 mph N/A Rain Light Rain
5:20 PM 71.6 °F - 55.4 °F 57% 29.78 in 10.0 mi West 20.7 mph 33.4 mph N/A Rain Light Rain
5:22 PM 71.6 °F - 55.4 °F 57% 29.78 in 10.0 mi WNW 23.0 mph 33.4 mph N/A Rain Light Rain
5:32 PM 64.4 °F - 59.0 °F 83% 29.84 in 1.0 mi WNW 23.0 mph 38.0 mph N/A Rain Rain
5:37 PM 60.8 °F - 57.2 °F 88% 29.85 in 0.8 mi West 19.6 mph 34.5 mph N/A Rain Heavy Rain
5:42 PM 59.0 °F - 55.4 °F 88% 29.85 in 1.5 mi WNW 16.1 mph 34.5 mph N/A Rain Rain
5:47 PM 57.2 °F - 55.4 °F 94% 29.86 in 9.0 mi WNW 16.1 mph 27.6 mph N/A Rain Light Rain
5:58 PM 56.7 °F - 53.4 °F 89% 29.88 in 10.0 mi WNW 13.8 mph 26.5 mph 0.26 in Rain Light Rain
6:07 PM 57.2 °F - 53.6 °F 88% 29.87 in 10.0 mi West 12.7 mph 20.7 mph N/A   Overcast
6:12 PM 57.2 °F - 53.6 °F 88% 29.87 in 10.0 mi West 10.4 mph 20.7 mph N/A   Overcast
6:58 PM 57.2 °F - 53.1 °F 86% 29.90 in 10.0 mi West 10.4 mph - 0.00 in   Partly Cloudy
7:58 PM 54.5 °F - 45.3 °F 71% 29.94 in 10.0 mi WNW 23.0 mph 28.8 mph N/A   Clear
8:58 PM 49.8 °F - 39.9 °F 69% 30.00 in 10.0 mi WNW 18.4 mph 28.8 mph N/A   Partly Cloudy
9:13 PM 48.2 °F - 39.2 °F 71% 30.01 in 10.0 mi NW 13.8 mph - N/A   Mostly Cloudy
9:18 PM 48.2 °F - 39.2 °F 71% 30.01 in 10.0 mi WNW 19.6 mph 26.5 mph N/A   Scattered Clouds
9:53 PM 46.4 °F 40.7 °F 37.4 °F 71% 30.03 in 10.0 mi WNW 12.7 mph 20.7 mph N/A   Mostly Cloudy
9:58 PM 45.5 °F 39.6 °F 37.0 °F 72% 30.04 in 10.0 mi WNW 12.7 mph - N/A   Mostly Cloudy
10:18 PM 44.6 °F 37.4 °F 35.6 °F 71% 30.04 in 10.0 mi WNW 16.1 mph 23.0 mph N/A   Scattered Clouds
10:58 PM 42.3 °F 35.9 °F 32.9 °F 69% 30.07 in 10.0 mi WNW 11.5 mph - N/A   Clear
11:58 PM 39.7 °F 34.9 °F 31.6 °F 73% 30.05 in 10.0 mi WNW 6.9 mph - N/A   Clear